This is the latest recevied weather packets stored in our database for station/object K9JWM. If no packets are shown the sender has not sent any weather packets the latest 10 day(s).
| Time | Temp. | Humidity | Pressure | Rain* | Wind** | Luminosity | Snow |
|---|---|---|---|---|---|---|---|
| 1777426793 | 8.33° C | 65% | 1014.7 hPa | 0 mm | - | - | - |
| 1777425894 | 8.89° C | 62% | 1014.4 hPa | 0 mm | - | - | - |
| 1777424994 | 9.44° C | 59% | 1014 hPa | 0 mm | - | - | - |
| 1777424095 | 10° C | 56% | 1013.7 hPa | 0 mm | - | - | - |
| 1777423195 | 10.56° C | 53% | 1013.6 hPa | 0 mm | - | - | - |
| 1777422294 | 11.11° C | 49% | 1013.4 hPa | 0 mm | - | - | - |
| 1777421394 | 11.11° C | 49% | 1013.2 hPa | 0 mm | - | - | - |
| 1777420495 | 11.67° C | 47% | 1013 hPa | 0 mm | - | - | - |
| 1777419595 | 11.67° C | 46% | 1012.9 hPa | 0 mm | - | - | - |
| 1777418695 | 12.22° C | 45% | 1012.9 hPa | 0 mm | - | - | - |
| 1777417794 | 12.22° C | 47% | 1012.8 hPa | 0 mm | - | - | - |
| 1777416896 | 12.22° C | 47% | 1012.9 hPa | 0 mm | - | - | - |
| 1777415994 | 12.22° C | 46% | 1012.5 hPa | 0 mm | - | - | - |
| 1777415095 | 11.67° C | 47% | 1012.6 hPa | 0 mm | - | - | - |
| 1777414194 | 11.67° C | 45% | 1012.5 hPa | 0 mm | - | - | - |
| 1777413294 | 12.22° C | 48% | 1012.5 hPa | 0 mm | - | - | - |
| 1777412395 | 12.22° C | 46% | 1012.4 hPa | 0 mm | - | - | - |
| 1777411495 | 12.22° C | 45% | 1012.4 hPa | 0 mm | - | - | - |
| 1777410594 | 11.67° C | 53% | 1012.4 hPa | 0 mm | - | - | - |
| 1777409695 | 11.67° C | 52% | 1012.2 hPa | 0 mm | - | - | - |
| 1777408794 | 11.67° C | 51% | 1012.3 hPa | 0 mm | - | - | - |
| 1777407895 | 12.22° C | 50% | 1012.4 hPa | 0 mm | - | - | - |
| 1777406994 | 11.67° C | 48% | 1012.3 hPa | 0 mm | - | - | - |
| 1777406095 | 12.22° C | 48% | 1012.4 hPa | 0 mm | - | - | - |
| 1777405194 | 11.67° C | 52% | 1012.1 hPa | 0 mm | - | - | - |
* Rain latest hour (hover to see other rain measurements)
** Current wind speed in m/s (hover to see current wind gust speed)